Starlink 11492

operational
NORAD ID: 62224 Int'l Des: 2024-231 Owner: SPXS Country: US Constellation: starlink
LEOCIRCULAR

Über Starlink 11492

Beschreibung wird geladen...

Live-Position

3D-Globus wird geladen...

Nächste Überflüge

Höhenverlauf

Altitude vs Time

uPlot chart will show altitude changes over time

Zweizeiliger Elementsatz

1 62224U 24231G 25351.84518781 .00183484 00000-0 14818-2 0 9998
2 62224 53.1565 144.9809 0001092 84.1208 275.9934 15.69779234 60551
Epoch: 17. Dez. 2025 • Age: 17 hours

Aktueller Status

Höhe 376.5 km
Geschwindigkeit 7.68 km/s
Subsatellitenpunkt -49.39°S, 162.04°E
Startdatum 5. Dez. 2024
Alter 1 years
Typ internet

Technische Details

Klassifizierung Payload
Masse 960.00 kg
Trockenmasse 910.00 kg
Gesamtmasse 960.00 kg
Länge 0.30 m
Durchmesser 4.10 m
Spannweite 29.00 m
Form Box + pan
Hersteller SPXS
Bus-Typ Starlink V2MD
Phasenstatus In Orbit
Besitzer/Staat SPXS/US

Große Konstellationen

Loading constellations...